SCP
-0 0 0 0 0 0 0 0 0 0 0 0 0 0 0 -0 -0 -0 -0 -0 -0 -0 -0 -0 -0 -0 -0 0 0 0 0 0 0 0 0 0 0 0 0 0 0 0 0 0 0 0 0 0 0
0 0 -0 -0 0 -0 0 0 0 0 0 -0 -0 -0 -0 -0 -0 -0 -0 -0 -0 -0 -0 -0 -0 -0 -0 0 0 0 0 0 0 0 0 0 0 0 0 0 0 0 0 0 0 0 0 0 0
0 -0 -0 -0 -0 -0 -0 0 0 0 0 0 0 -0 -0 -0 -0 -0 -0 -0 -0 -0 -0 -0 -0 -0 -0 -0 -0 -0 -0 0 0 0 0 0 0 0 0 0 0 0 0 0 0 0 0 0 0
0 0 0 0 0 0 0 0 -0 0 0 0 0 -0 -0 -0 -0 -0 -0 -0 -0 -0 -0 -0 -0 -0 -0 -0 -0 -0 -0 -0 0 0 0 0 0 0 0 0 0 0 0 0 0 0 0 0 0
0 0 -0 -0 0 0 0 0 0 0 0 0 -0 0 -0 -0 -0 -0 -0 -0 -0 -0 -0 -0 -0 -0 -0 -0 -0 -0 -0 -0 -0 -0 -0 -0 0 0 0 0 0 0 0 0 0 0 0 0 0
0 0 -0 0 0 0 0 -0 -0 0 0 0 0 -0 -0 -0 -0 -0 -0 -0 -0 -0 -0 -0 -0 -0 -0 -0 -0 -0 -0 -0 -0 -0 -0 0 0 0 0 0 0 0 0 0 0 0 0 0 0
-0 0 -0 0 0 0 0 -0 -0 -0 -0 0 -0 -0 -0 -0 -0 -0 -0 -0 0 0 -0 -0 -0 -0 -0 -0 -0 -0 -0 -0 -0 -0 0 0 0 0 0 0 0 0 0 0 0 0 0 0 0
0 0 0 0 0 0 0 -0 -0 -0 -0 0 0 0 0 -0 -0 -0 -0 0 0 0 0 -0 -0 -0 -0 -0 -0 -0 -0 -0 -0 0 0 0 0 0 0 0 0 0 0 0 0 0 0 0 0
0 0 0 0 0 0 -0 0 0 -0 -0 0 0 0 -0 -0 -0 -0 -0 0 0 0 0 -0 -0 0 0 0 0 -0 0 0 0 0 0 0 0 0 0 0 0 0 0 0 0 0 0 0 0
0 0 -0 0 0 0 0 0 0 -0 0 0 -0 0 -0 -0 -0 -0 -0 0 0 0 0 -0 0 0 0 0 0 0 0 0 0 0 0 0 0 0 0 0 0 0 0 0 0 0 0 0 0
0 -0 -0 0 0 0 0 0 0 -0 0 0 -0 -0 -0 -0 -0 0 0 0 -0 -0 0 0 0 0 0 0 0 0 0 0 0 0 0 0 0 0 0 0 0 0 0 0 0 0 0 0 0
0 -0 0 0 0 0 0 0 0 -0 0 0 -0 -0 -0 -0 0 0 0 0 0 0 0 0 0 0 0 0 0 0 0 0 0 0 0 0 0 0 0 0 0 0 0 0 0 0 0 0 0
0 0 0 0 0 0 0 0 0 -0 0 0 -0 -0 -0 0 0 0 0 0 0 0 0 0 0 0 0 0 0 0 0 0 0 0 0 0 0 0 0 0 0 0 0 0 0 0 0 0 0
0 0 0 0 0 0 0 0 0 -0 0 0 0 0 0 0 0 0 0 0 0 0 0 0 0 0 0 0 0 0 0 0 0 0 0 0 0 0 0 0 0 0 0 0 0 0 0 0 0
0 0 0 0 0 0 0 0 0 0 0 0 0 0 0 0 0 0 0 0 0 0 0 0 0 0 0 0 0 0 0 0 0 0 0 0 0 0 0 0 0 0 0 0 0 0 0 0 0
0 0 0 0 0 0 0 -0 0 0 0 0 0 0 0 0 0 0 0 0 0 0 0 0 0 0 0 0 0 0 0 0 0 0 0 0 0 0 0 0 0 0 0 0 0 0 0 0 0
0 0 0 0 0 0 0 -0 0 0 0 0 0 0 0 0 0 0 0 0 0 0 0 0 0 0 0 0 0 0 0 0 0 0 0 0 0 0 0 0 0 0 0 0 0 0 0 0 0
0 0 0 0 0 0 0 -0 0 0 0 0 0 0 0 0 0 -0 0 0 0 0 0 0 0 0 0 0 0 0 0 0 0 0 0 0 0 0 0 0 0 0 0 0 0 0 0 0 0
0 0 0 0 0 0 0 -0 0 0 0 0 0 0 0 0 0 0 0 0 0 0 0 -0 -0 0 0 0 0 0 0 0 0 0 0 0 0 0 0 0 0 0 0 0 0 0 0 0 -0
0 0 0 0 0 0 0 0 0 0 0 0 0 0 0 0 0 0 0 0 0 0 -0 -0 -0 0 0 0 0 0 0 0 0 0 0 0 0 0 0 0 0 0 0 0 0 0 0 0 0
0 0 0 0 0 0 0 0 0 0 0 0 0 0 0 0 1 0 0 0 0 -0 -0 -0 -0 0 0 0 0 0 0 0 0 0 0 0 0 0 0 0 0 0 0 0 0 0 0 0 0
0 0 0 0 0 0 0 0 0 0 0 0 0 0 0 0 0 0 0 0 0 0 0 -0 0 0 0 0 0 0 0 0 0 0 0 0 0 0 0 0 0 0 0 0 0 0 0 0 0
0 0 0 0 0 0 0 0 0 0 0 0 -0 -0 -0 -0 -0 0 0 0 0 0 -0 -0 0 0 0 0 0 0 0 0 0 0 0 0 0 0 0 0 0 0 0 0 0 0 0 0 0
0 0 0 0 0 0 0 0 0 0 0 0 0 0 0 0 0 0 0 0 0 0 -0 0 0 0 0 0 0 0 0 0 0 0 0 0 0 0 0 0 0 0 0 0 0 0 0 0 0
0 0 0 0 0 0 0 0 0 0 0 0 0 0 0 0 0 0 -0 -0 0 0 -0 0 0 0 0 0 0 0 0 0 0 0 0 0 0 0 0 0 0 0 0 0 0 0 0 0 0
0 0 0 0 0 0 0 0 0 0 0 0 0 0 0 0 0 -0 -0 -0 -0 0 0 0 0 0 0 0 0 0 0 0 0 0 0 0 0 0 0 0 0 0 0 0 0 0 0 0 0
0 0 0 0 0 0 0 0 0 0 0 0 0 0 0 0 -0 -0 -0 -0 -0 -0 -0 0 -0 0 0 0 0 0 0 0 0 0 0 0 0 0 0 0 0 0 0 0 0 0 0 0 -0
0 0 0 0 0 0 0 0 0 0 0 0 0 0 0 -0 -0 0 0 0 0 -0 0 0 0 0 0 0 0 0 0 0 0 0 0 0 0 0 0 0 0 0 0 0 0 0 0 -0 -0
0 0 0 0 0 0 0 0 0 0 0 0 -0 0 0 0 0 0 -0 -0 0 -0 0 0 0 0 0 0 0 0 0 0 0 0 0 0 0 0 0 0 0 0 0 0 0 0 0 -0 -0
0 0 0 0 0 0 0 0 0 0 0 0 0 0 0 0 0 0 -0 -0 -0 0 0 0 0 0 0 0 0 0 0 0 0 0 0 0 0 0 0 0 0 0 0 0 0 0 0 -0 -0
Wind_Speed_500mb
9 8 3 7 15 11 5 8 11 14 11 10 8 3 11 17 17 8 27 21 29 26 24 24 22 20 18 18 15 13 10 9 9 8 7 7 6 5 5 5 5 5 4 5 6 8 10 11 13
5 1 5 12 16 16 15 13 3 15 17 19 12 11 5 11 14 28 24 28 26 27 26 25 24 21 18 17 15 14 12 10 9 8 7 6 5 5 6 7 7 7 8 10 10 11 12 13 15
3 5 17 9 11 10 10 9 13 22 16 9 10 10 8 15 22 18 29 32 29 27 26 26 27 23 21 19 17 14 13 11 9 9 9 8 6 6 7 9 11 12 14 16 17 17 18 20 21
4 8 13 19 15 10 4 6 17 22 12 7 11 19 20 16 16 20 30 30 28 27 24 26 26 24 22 19 17 15 14 13 12 12 10 8 8 10 12 14 15 16 18 19 18 17 17 19 19
8 12 15 19 10 4 4 4 15 15 10 14 5 15 21 17 25 34 31 29 28 26 22 24 24 22 20 18 16 17 16 14 12 10 8 7 10 13 16 18 20 21 23 23 23 22 22 21 22
20 13 16 20 15 2 5 12 19 18 9 15 16 26 19 24 28 30 30 29 26 27 25 23 25 23 21 19 19 16 14 11 9 9 10 13 16 18 20 21 24 26 26 28 27 26 24 24 25
30 15 20 14 10 11 6 17 22 17 11 12 21 15 23 26 28 31 31 28 28 25 26 21 23 23 22 19 17 14 10 8 8 11 16 19 21 22 22 23 25 25 26 27 28 29 31 29 29
26 14 15 18 17 6 13 21 15 17 11 16 20 11 22 35 32 32 30 27 25 27 26 26 21 20 20 16 12 8 4 5 11 18 24 26 25 22 22 22 25 27 29 32 34 36 36 35 35
19 20 21 22 19 10 19 21 16 11 13 17 21 11 31 41 37 35 32 29 28 26 26 24 21 22 15 15 9 3 3 11 19 25 23 19 17 19 20 27 29 32 33 36 38 40 41 41 39
26 23 26 11 16 12 14 19 23 16 24 20 21 21 43 44 41 37 33 30 27 25 23 19 21 19 16 12 8 2 7 15 22 25 21 22 25 28 29 33 37 37 36 37 37 39 37 33 25
34 28 23 15 19 12 8 18 20 25 26 26 33 40 46 44 40 34 28 25 24 22 20 17 20 17 13 8 4 3 12 20 25 23 24 27 28 30 31 32 32 38 36 27 30 28 26 29 28
23 38 28 23 6 17 17 8 24 29 3 20 32 38 45 44 41 36 31 27 26 20 17 17 14 17 18 8 3 9 16 22 17 20 22 27 27 36 40 39 35 32 28 30 28 26 30 29 29
31 19 32 17 8 20 13 22 25 34 14 18 35 39 40 40 38 35 31 27 23 20 18 19 21 21 16 17 12 14 21 15 15 18 24 30 33 41 38 34 26 26 26 26 26 26 28 30 30
22 19 12 18 24 18 20 19 23 27 33 24 38 40 36 40 41 38 36 30 25 21 18 20 21 21 22 17 18 20 20 13 11 18 28 35 36 38 26 23 24 25 25 25 26 25 28 29 28
10 22 20 23 16 14 17 15 29 15 31 31 35 39 38 43 44 42 40 39 36 27 26 23 19 24 25 19 22 15 9 6 9 21 31 36 35 30 23 22 23 23 24 27 26 27 25 22 26
21 18 24 26 18 14 21 32 40 33 31 35 36 39 44 45 47 47 46 42 32 29 26 18 27 28 24 16 17 10 9 9 15 20 24 33 30 26 20 20 22 23 24 25 25 27 21 22 23
20 23 27 18 23 15 29 33 15 26 33 35 40 42 44 44 46 44 39 38 47 34 24 18 31 24 18 20 13 13 13 11 14 17 19 25 21 19 17 18 21 24 24 22 21 25 17 21 23
18 26 12 20 22 25 29 35 11 21 34 38 39 42 44 42 49 41 38 41 34 30 29 35 32 24 21 14 13 13 8 10 13 14 16 16 14 16 16 18 24 26 24 21 20 24 12 16 14
13 15 13 7 5 22 28 32 26 23 31 37 42 46 46 43 41 40 36 32 31 32 37 27 25 23 19 15 10 7 1 8 10 12 12 12 13 15 18 17 22 24 25 22 21 17 23 12 10
12 17 21 6 7 16 19 25 21 20 32 37 42 46 44 42 47 46 41 38 37 29 31 30 24 25 22 17 17 8 3 5 6 5 7 11 14 15 14 17 20 22 22 24 24 22 16 19 20
18 18 16 22 11 17 12 25 26 29 33 39 47 44 46 49 53 46 48 41 34 34 32 30 29 27 23 19 12 7 9 7 5 7 8 10 12 13 15 16 18 22 20 23 26 23 20 17 19
19 10 15 14 19 25 24 26 27 25 31 36 52 53 52 52 55 50 51 45 41 37 37 33 29 29 26 19 11 9 7 7 8 8 8 8 12 14 15 16 16 19 22 24 25 25 24 21 19
5 4 10 15 21 29 26 19 28 10 25 35 46 54 56 56 55 57 54 52 44 47 39 37 33 32 28 20 15 8 11 9 11 11 10 9 13 14 13 13 13 16 16 22 25 26 26 24 22
9 20 16 15 23 25 37 28 28 23 23 28 32 47 51 57 56 56 52 52 51 45 37 35 38 36 29 22 16 12 11 15 14 13 9 8 8 8 10 7 9 10 10 14 17 18 21 21 23
18 22 18 20 18 25 4 13 26 21 15 23 20 26 45 56 58 63 62 61 55 50 44 39 41 40 33 25 17 13 11 14 16 14 10 10 7 6 4 8 8 8 10 8 11 16 14 16 19
11 9 17 13 17 15 13 15 21 17 19 24 20 21 34 55 58 65 65 62 58 50 48 43 42 40 35 28 21 16 13 16 14 14 10 10 8 6 6 3 4 7 6 4 9 11 9 11 12
10 19 10 16 21 20 28 23 16 28 24 26 27 27 36 55 60 57 62 61 61 59 54 48 44 39 37 30 24 20 18 19 17 16 14 10 10 5 7 4 3 8 5 1 5 6 10 10 9
16 14 12 21 29 35 24 19 18 15 17 22 15 25 34 47 53 54 58 63 58 53 51 47 44 41 37 32 27 23 20 18 17 17 15 14 11 10 8 3 3 7 5 2 4 5 7 8 7
10 19 12 12 17 22 27 23 1 12 24 31 37 25 30 43 49 54 59 61 60 56 55 52 48 44 40 35 31 27 22 21 19 17 15 13 11 11 10 5 1 4 3 4 5 5 3 5 8
17 12 11 15 16 18 15 24 33 27 26 32 29 35 18 36 45 52 58 63 62 60 57 56 51 47 42 38 34 30 25 24 24 21 18 15 10 9 7 6 3 2 2 6 6 4 4 6 9
Wind_Direction_500mb
282 348 251 241 241 243 151 102 72 125 134 101 81 295 45 23 4 39 141 120 132 138 138 137 147 147 149 146 142 136 129 126 121 118 110 99 84 72 63 50 38 21 351 326 304 291 286 281 281
253 305 264 268 257 227 101 80 168 78 111 126 106 113 111 65 61 119 129 136 136 133 131 142 142 150 151 145 143 140 139 135 129 124 110 91 70 54 41 32 15 358 333 320 306 295 289 286 282
242 206 263 254 259 289 41 124 110 116 132 163 123 82 65 80 112 114 139 137 137 132 133 137 135 141 143 143 144 141 137 135 130 115 104 99 86 57 20 0 342 332 327 319 307 303 302 297 289
191 226 232 248 226 77 358 85 127 142 125 165 125 96 94 95 131 138 136 138 133 127 135 137 137 140 144 143 143 140 132 120 105 95 85 67 36 5 348 339 331 330 333 331 328 319 311 307 302
210 246 246 237 217 52 139 144 159 143 137 146 161 114 108 99 123 136 141 137 136 135 138 139 143 143 144 143 138 128 120 110 98 82 61 14 356 334 322 320 316 315 315 316 317 315 312 308 306
226 266 237 221 179 111 177 179 175 183 137 135 134 128 99 132 133 140 142 143 143 141 144 145 143 146 143 138 129 121 116 102 80 55 19 351 342 325 316 310 307 307 308 308 308 307 304 303 300
250 230 254 283 168 220 151 185 186 183 165 159 143 126 133 146 147 147 145 146 145 145 141 138 134 143 139 138 133 128 110 82 35 8 349 338 331 323 319 312 308 305 305 303 301 298 297 297 296
244 263 233 228 204 209 130 177 193 189 156 144 163 148 161 158 151 148 146 147 150 144 143 140 135 128 131 142 137 126 99 13 358 349 345 340 338 335 330 322 317 313 307 302 298 295 293 292 291
223 238 235 216 222 213 135 188 169 197 179 174 170 145 149 154 152 152 153 154 151 149 147 147 146 142 146 126 139 143 356 349 341 338 338 346 344 342 341 331 326 319 314 309 304 299 296 294 297
219 229 234 234 212 246 153 206 167 182 187 176 155 140 149 154 157 159 160 158 156 152 146 160 146 151 143 135 127 329 327 331 334 340 347 356 353 350 344 340 332 328 324 319 312 304 302 316 298
218 245 236 219 243 247 194 205 187 212 191 192 175 155 159 162 165 163 160 158 158 159 165 167 168 158 152 158 141 14 340 338 338 346 353 350 348 343 342 340 336 332 328 329 328 327 322 311 307
233 234 256 237 195 221 221 227 207 222 115 188 182 172 169 169 171 167 165 162 164 165 172 171 174 188 203 195 178 310 320 326 335 341 348 348 350 346 345 341 342 340 341 336 336 330 327 326 319
228 238 232 222 232 225 218 238 220 214 168 173 174 173 178 176 174 172 171 169 166 173 181 198 215 226 239 256 258 294 307 315 329 341 340 346 348 347 345 346 357 359 354 347 345 340 338 335 326
206 227 224 223 231 218 227 231 212 224 189 175 173 179 179 181 178 175 175 175 168 174 190 210 221 227 241 255 275 289 289 311 340 342 344 345 346 346 360 2 7 2 358 359 359 350 346 344 346
208 214 214 216 213 217 233 211 227 208 184 189 189 190 186 186 184 185 180 178 182 209 229 240 235 245 239 239 264 276 287 336 355 344 337 342 351 358 21 12 12 4 2 6 2 3 360 355 5
217 236 217 187 196 182 213 241 206 197 192 191 193 189 190 190 190 192 201 209 214 223 227 249 274 249 235 248 262 267 284 312 332 338 345 351 356 10 21 19 15 14 9 7 12 7 18 27 26
212 238 216 172 203 185 214 241 111 176 199 196 194 194 192 192 193 197 199 204 209 206 215 237 259 238 238 244 245 264 280 307 338 353 352 355 8 19 37 28 17 20 11 12 20 20 39 38 43
212 231 220 242 179 219 212 243 129 198 204 205 201 199 200 201 202 200 199 208 207 218 231 232 228 225 222 230 238 252 280 336 353 359 358 15 27 27 47 21 25 24 25 31 34 32 38 47 40
306 287 257 120 188 224 228 225 206 195 210 213 209 207 206 208 206 197 191 189 199 229 225 209 213 210 202 203 186 182 219 357 0 358 360 27 40 38 45 33 32 35 38 38 33 37 30 6 350
243 243 238 213 232 237 207 235 233 196 226 225 221 219 212 203 196 189 186 189 204 215 210 211 213 207 200 198 197 209 265 306 330 357 19 48 50 49 42 52 41 53 32 39 36 37 34 26 24
225 258 256 263 151 245 270 247 242 235 232 234 235 227 218 204 198 191 189 190 193 195 211 208 205 206 202 209 220 256 291 321 82 76 70 61 57 55 62 54 57 47 48 35 37 36 34 25 22
247 198 244 232 234 242 194 259 207 221 228 230 232 225 218 202 204 199 192 188 188 198 205 203 207 204 206 203 202 211 180 163 171 137 135 65 71 79 71 73 64 63 49 50 38 36 37 50 31
22 186 284 251 243 260 218 249 265 198 237 243 231 224 220 208 203 200 193 192 195 204 192 204 201 197 202 201 210 220 158 176 147 145 118 123 96 93 89 80 65 59 53 45 46 47 50 40 43
292 260 235 248 244 231 242 230 260 202 234 242 228 225 215 210 203 197 192 190 192 193 191 191 197 198 200 204 212 201 187 161 161 156 138 134 119 95 87 71 52 39 32 37 37 43 38 44 42
227 244 245 216 211 243 197 250 256 280 232 258 257 223 210 204 194 188 190 191 187 192 187 186 192 196 199 202 204 193 182 167 165 148 162 156 147 136 99 68 83 35 38 40 39 30 37 42 44
209 280 285 280 263 252 158 251 252 259 282 268 267 242 207 197 192 192 197 192 189 184 187 186 185 190 196 198 194 188 180 161 168 165 180 168 166 166 146 106 62 23 25 23 44 18 42 51 55
155 236 324 286 260 267 276 260 245 239 245 256 257 229 204 193 194 200 199 193 191 187 185 184 183 184 191 192 190 191 170 170 176 183 172 173 165 181 168 163 355 353 355 170 63 29 50 60 76
268 5 239 223 253 263 259 244 271 292 277 279 237 227 199 191 197 198 194 193 189 186 182 181 182 183 186 190 190 187 176 176 179 177 176 187 195 181 180 189 339 350 344 190 129 65 53 60 24
269 239 220 304 302 287 274 266 69 302 324 331 313 211 192 190 193 193 191 191 185 183 182 181 180 182 185 190 186 183 180 177 177 175 167 167 170 179 194 226 287 2 353 182 170 152 71 21 354
262 287 285 272 243 241 295 288 308 293 307 316 314 304 202 198 192 189 187 185 184 183 182 182 180 182 185 188 185 183 180 175 174 177 176 174 175 171 200 215 248 5 93 177 186 199 273 317 323
Wind_Speed_850mb
9 8 3 7 15 11 5 8 11 14 11 10 8 3 11 17 17 8 27 21 29 26 24 24 22 20 18 18 15 13 10 9 9 8 7 7 6 5 5 5 5 5 4 5 6 8 10 11 13
5 1 5 12 16 16 15 13 3 15 17 19 12 11 5 11 14 28 24 28 26 27 26 25 24 21 18 17 15 14 12 10 9 8 7 6 5 5 6 7 7 7 8 10 10 11 12 13 15
3 5 17 9 11 10 10 9 13 22 16 9 10 10 8 15 22 18 29 32 29 27 26 26 27 23 21 19 17 14 13 11 9 9 9 8 6 6 7 9 11 12 14 16 17 17 18 20 21
4 8 13 19 15 10 4 6 17 22 12 7 11 19 20 16 16 20 30 30 28 27 24 26 26 24 22 19 17 15 14 13 12 12 10 8 8 10 12 14 15 16 18 19 18 17 17 19 19
8 12 15 19 10 4 4 4 15 15 10 14 5 15 21 17 25 34 31 29 28 26 22 24 24 22 20 18 16 17 16 14 12 10 8 7 10 13 16 18 20 21 23 23 23 22 22 21 22
20 13 16 20 15 2 5 12 19 18 9 15 16 26 19 24 28 30 30 29 26 27 25 23 25 23 21 19 19 16 14 11 9 9 10 13 16 18 20 21 24 26 26 28 27 26 24 24 25
30 15 20 14 10 11 6 17 22 17 11 12 21 15 23 26 28 31 31 28 28 25 26 21 23 23 22 19 17 14 10 8 8 11 16 19 21 22 22 23 25 25 26 27 28 29 31 29 29
26 14 15 18 17 6 13 21 15 17 11 16 20 11 22 35 32 32 30 27 25 27 26 26 21 20 20 16 12 8 4 5 11 18 24 26 25 22 22 22 25 27 29 32 34 36 36 35 35
19 20 21 22 19 10 19 21 16 11 13 17 21 11 31 41 37 35 32 29 28 26 26 24 21 22 15 15 9 3 3 11 19 25 23 19 17 19 20 27 29 32 33 36 38 40 41 41 39
26 23 26 11 16 12 14 19 23 16 24 20 21 21 43 44 41 37 33 30 27 25 23 19 21 19 16 12 8 2 7 15 22 25 21 22 25 28 29 33 37 37 36 37 37 39 37 33 25
34 28 23 15 19 12 8 18 20 25 26 26 33 40 46 44 40 34 28 25 24 22 20 17 20 17 13 8 4 3 12 20 25 23 24 27 28 30 31 32 32 38 36 27 30 28 26 29 28
23 38 28 23 6 17 17 8 24 29 3 20 32 38 45 44 41 36 31 27 26 20 17 17 14 17 18 8 3 9 16 22 17 20 22 27 27 36 40 39 35 32 28 30 28 26 30 29 29
31 19 32 17 8 20 13 22 25 34 14 18 35 39 40 40 38 35 31 27 23 20 18 19 21 21 16 17 12 14 21 15 15 18 24 30 33 41 38 34 26 26 26 26 26 26 28 30 30
22 19 12 18 24 18 20 19 23 27 33 24 38 40 36 40 41 38 36 30 25 21 18 20 21 21 22 17 18 20 20 13 11 18 28 35 36 38 26 23 24 25 25 25 26 25 28 29 28
10 22 20 23 16 14 17 15 29 15 31 31 35 39 38 43 44 42 40 39 36 27 26 23 19 24 25 19 22 15 9 6 9 21 31 36 35 30 23 22 23 23 24 27 26 27 25 22 26
21 18 24 26 18 14 21 32 40 33 31 35 36 39 44 45 47 47 46 42 32 29 26 18 27 28 24 16 17 10 9 9 15 20 24 33 30 26 20 20 22 23 24 25 25 27 21 22 23
20 23 27 18 23 15 29 33 15 26 33 35 40 42 44 44 46 44 39 38 47 34 24 18 31 24 18 20 13 13 13 11 14 17 19 25 21 19 17 18 21 24 24 22 21 25 17 21 23
18 26 12 20 22 25 29 35 11 21 34 38 39 42 44 42 49 41 38 41 34 30 29 35 32 24 21 14 13 13 8 10 13 14 16 16 14 16 16 18 24 26 24 21 20 24 12 16 14
13 15 13 7 5 22 28 32 26 23 31 37 42 46 46 43 41 40 36 32 31 32 37 27 25 23 19 15 10 7 1 8 10 12 12 12 13 15 18 17 22 24 25 22 21 17 23 12 10
12 17 21 6 7 16 19 25 21 20 32 37 42 46 44 42 47 46 41 38 37 29 31 30 24 25 22 17 17 8 3 5 6 5 7 11 14 15 14 17 20 22 22 24 24 22 16 19 20
18 18 16 22 11 17 12 25 26 29 33 39 47 44 46 49 53 46 48 41 34 34 32 30 29 27 23 19 12 7 9 7 5 7 8 10 12 13 15 16 18 22 20 23 26 23 20 17 19
19 10 15 14 19 25 24 26 27 25 31 36 52 53 52 52 55 50 51 45 41 37 37 33 29 29 26 19 11 9 7 7 8 8 8 8 12 14 15 16 16 19 22 24 25 25 24 21 19
5 4 10 15 21 29 26 19 28 10 25 35 46 54 56 56 55 57 54 52 44 47 39 37 33 32 28 20 15 8 11 9 11 11 10 9 13 14 13 13 13 16 16 22 25 26 26 24 22
9 20 16 15 23 25 37 28 28 23 23 28 32 47 51 57 56 56 52 52 51 45 37 35 38 36 29 22 16 12 11 15 14 13 9 8 8 8 10 7 9 10 10 14 17 18 21 21 23
18 22 18 20 18 25 4 13 26 21 15 23 20 26 45 56 58 63 62 61 55 50 44 39 41 40 33 25 17 13 11 14 16 14 10 10 7 6 4 8 8 8 10 8 11 16 14 16 19
11 9 17 13 17 15 13 15 21 17 19 24 20 21 34 55 58 65 65 62 58 50 48 43 42 40 35 28 21 16 13 16 14 14 10 10 8 6 6 3 4 7 6 4 9 11 9 11 12
10 19 10 16 21 20 28 23 16 28 24 26 27 27 36 55 60 57 62 61 61 59 54 48 44 39 37 30 24 20 18 19 17 16 14 10 10 5 7 4 3 8 5 1 5 6 10 10 9
16 14 12 21 29 35 24 19 18 15 17 22 15 25 34 47 53 54 58 63 58 53 51 47 44 41 37 32 27 23 20 18 17 17 15 14 11 10 8 3 3 7 5 2 4 5 7 8 7
10 19 12 12 17 22 27 23 1 12 24 31 37 25 30 43 49 54 59 61 60 56 55 52 48 44 40 35 31 27 22 21 19 17 15 13 11 11 10 5 1 4 3 4 5 5 3 5 8
17 12 11 15 16 18 15 24 33 27 26 32 29 35 18 36 45 52 58 63 62 60 57 56 51 47 42 38 34 30 25 24 24 21 18 15 10 9 7 6 3 2 2 6 6 4 4 6 9
Wind_Direction_850mb
282 348 251 241 241 243 151 102 72 125 134 101 81 295 45 23 4 39 141 120 132 138 138 137 147 147 149 146 142 136 129 126 121 118 110 99 84 72 63 50 38 21 351 326 304 291 286 281 281
253 305 264 268 257 227 101 80 168 78 111 126 106 113 111 65 61 119 129 136 136 133 131 142 142 150 151 145 143 140 139 135 129 124 110 91 70 54 41 32 15 358 333 320 306 295 289 286 282
242 206 263 254 259 289 41 124 110 116 132 163 123 82 65 80 112 114 139 137 137 132 133 137 135 141 143 143 144 141 137 135 130 115 104 99 86 57 20 0 342 332 327 319 307 303 302 297 289
191 226 232 248 226 77 358 85 127 142 125 165 125 96 94 95 131 138 136 138 133 127 135 137 137 140 144 143 143 140 132 120 105 95 85 67 36 5 348 339 331 330 333 331 328 319 311 307 302
210 246 246 237 217 52 139 144 159 143 137 146 161 114 108 99 123 136 141 137 136 135 138 139 143 143 144 143 138 128 120 110 98 82 61 14 356 334 322 320 316 315 315 316 317 315 312 308 306
226 266 237 221 179 111 177 179 175 183 137 135 134 128 99 132 133 140 142 143 143 141 144 145 143 146 143 138 129 121 116 102 80 55 19 351 342 325 316 310 307 307 308 308 308 307 304 303 300
250 230 254 283 168 220 151 185 186 183 165 159 143 126 133 146 147 147 145 146 145 145 141 138 134 143 139 138 133 128 110 82 35 8 349 338 331 323 319 312 308 305 305 303 301 298 297 297 296
244 263 233 228 204 209 130 177 193 189 156 144 163 148 161 158 151 148 146 147 150 144 143 140 135 128 131 142 137 126 99 13 358 349 345 340 338 335 330 322 317 313 307 302 298 295 293 292 291
223 238 235 216 222 213 135 188 169 197 179 174 170 145 149 154 152 152 153 154 151 149 147 147 146 142 146 126 139 143 356 349 341 338 338 346 344 342 341 331 326 319 314 309 304 299 296 294 297
219 229 234 234 212 246 153 206 167 182 187 176 155 140 149 154 157 159 160 158 156 152 146 160 146 151 143 135 127 329 327 331 334 340 347 356 353 350 344 340 332 328 324 319 312 304 302 316 298
218 245 236 219 243 247 194 205 187 212 191 192 175 155 159 162 165 163 160 158 158 159 165 167 168 158 152 158 141 14 340 338 338 346 353 350 348 343 342 340 336 332 328 329 328 327 322 311 307
233 234 256 237 195 221 221 227 207 222 115 188 182 172 169 169 171 167 165 162 164 165 172 171 174 188 203 195 178 310 320 326 335 341 348 348 350 346 345 341 342 340 341 336 336 330 327 326 319
228 238 232 222 232 225 218 238 220 214 168 173 174 173 178 176 174 172 171 169 166 173 181 198 215 226 239 256 258 294 307 315 329 341 340 346 348 347 345 346 357 359 354 347 345 340 338 335 326
206 227 224 223 231 218 227 231 212 224 189 175 173 179 179 181 178 175 175 175 168 174 190 210 221 227 241 255 275 289 289 311 340 342 344 345 346 346 360 2 7 2 358 359 359 350 346 344 346
208 214 214 216 213 217 233 211 227 208 184 189 189 190 186 186 184 185 180 178 182 209 229 240 235 245 239 239 264 276 287 336 355 344 337 342 351 358 21 12 12 4 2 6 2 3 360 355 5
217 236 217 187 196 182 213 241 206 197 192 191 193 189 190 190 190 192 201 209 214 223 227 249 274 249 235 248 262 267 284 312 332 338 345 351 356 10 21 19 15 14 9 7 12 7 18 27 26
212 238 216 172 203 185 214 241 111 176 199 196 194 194 192 192 193 197 199 204 209 206 215 237 259 238 238 244 245 264 280 307 338 353 352 355 8 19 37 28 17 20 11 12 20 20 39 38 43
212 231 220 242 179 219 212 243 129 198 204 205 201 199 200 201 202 200 199 208 207 218 231 232 228 225 222 230 238 252 280 336 353 359 358 15 27 27 47 21 25 24 25 31 34 32 38 47 40
306 287 257 120 188 224 228 225 206 195 210 213 209 207 206 208 206 197 191 189 199 229 225 209 213 210 202 203 186 182 219 357 0 358 360 27 40 38 45 33 32 35 38 38 33 37 30 6 350
243 243 238 213 232 237 207 235 233 196 226 225 221 219 212 203 196 189 186 189 204 215 210 211 213 207 200 198 197 209 265 306 330 357 19 48 50 49 42 52 41 53 32 39 36 37 34 26 24
225 258 256 263 151 245 270 247 242 235 232 234 235 227 218 204 198 191 189 190 193 195 211 208 205 206 202 209 220 256 291 321 82 76 70 61 57 55 62 54 57 47 48 35 37 36 34 25 22
247 198 244 232 234 242 194 259 207 221 228 230 232 225 218 202 204 199 192 188 188 198 205 203 207 204 206 203 202 211 180 163 171 137 135 65 71 79 71 73 64 63 49 50 38 36 37 50 31
22 186 284 251 243 260 218 249 265 198 237 243 231 224 220 208 203 200 193 192 195 204 192 204 201 197 202 201 210 220 158 176 147 145 118 123 96 93 89 80 65 59 53 45 46 47 50 40 43
292 260 235 248 244 231 242 230 260 202 234 242 228 225 215 210 203 197 192 190 192 193 191 191 197 198 200 204 212 201 187 161 161 156 138 134 119 95 87 71 52 39 32 37 37 43 38 44 42
227 244 245 216 211 243 197 250 256 280 232 258 257 223 210 204 194 188 190 191 187 192 187 186 192 196 199 202 204 193 182 167 165 148 162 156 147 136 99 68 83 35 38 40 39 30 37 42 44
209 280 285 280 263 252 158 251 252 259 282 268 267 242 207 197 192 192 197 192 189 184 187 186 185 190 196 198 194 188 180 161 168 165 180 168 166 166 146 106 62 23 25 23 44 18 42 51 55
155 236 324 286 260 267 276 260 245 239 245 256 257 229 204 193 194 200 199 193 191 187 185 184 183 184 191 192 190 191 170 170 176 183 172 173 165 181 168 163 355 353 355 170 63 29 50 60 76
268 5 239 223 253 263 259 244 271 292 277 279 237 227 199 191 197 198 194 193 189 186 182 181 182 183 186 190 190 187 176 176 179 177 176 187 195 181 180 189 339 350 344 190 129 65 53 60 24
269 239 220 304 302 287 274 266 69 302 324 331 313 211 192 190 193 193 191 191 185 183 182 181 180 182 185 190 186 183 180 177 177 175 167 167 170 179 194 226 287 2 353 182 170 152 71 21 354
262 287 285 272 243 241 295 288 308 293 307 316 314 304 202 198 192 189 187 185 184 183 182 182 180 182 185 188 185 183 180 175 174 177 176 174 175 171 200 215 248 5 93 177 186 199 273 317 323